Time,TemperatureF,DewpointF,PressureIn,WindDirection,WindDirectionDegrees,WindSpeedMPH,WindSpeedGustMPH,Humidity,HourlyPrecipIn,Conditions,Clouds,dailyrainin,SolarRadiationWatts/m^2,SoftwareType,DateUTC
2013-07-23 00:03:00,75.4,64.1,29.77,NE,44,7.0,12.0,68,0.00,,,0.00,0,Wunderground v.1.15,2013-07-23 05:03:00,
2013-07-23 00:09:00,75.3,64.0,29.77,NE,39,6.0,12.0,68,0.00,,,0.00,0,Wunderground v.1.15,2013-07-23 05:09:00,
2013-07-23 00:15:00,75.4,64.1,29.77,NE,38,5.0,10.0,68,0.00,,,0.00,0,Wunderground v.1.15,2013-07-23 05:15:00,
2013-07-23 00:21:00,75.3,64.0,29.77,NE,45,5.0,5.0,68,0.00,,,0.00,0,Wunderground v.1.15,2013-07-23 05:21:00,
2013-07-23 00:26:00,75.1,63.8,29.77,NE,49,3.0,5.0,68,0.00,,,0.00,0,Wunderground v.1.15,2013-07-23 05:26:00,
2013-07-23 00:31:00,75.0,63.7,29.77,ENE,65,2.0,3.0,68,0.00,,,0.00,0,Wunderground v.1.15,2013-07-23 05:31:00,
2013-07-23 00:36:00,74.8,63.9,29.77,ENE,65,2.0,3.0,69,0.00,,,0.00,0,Wunderground v.1.15,2013-07-23 05:36:00,
2013-07-23 00:41:00,74.6,63.8,29.77,NE,44,2.0,5.0,69,0.00,,,0.00,0,Wunderground v.1.15,2013-07-23 05:41:00,
2013-07-23 00:47:00,74.4,63.6,29.77,NE,45,2.0,5.0,69,0.00,,,0.00,0,Wunderground v.1.15,2013-07-23 05:47:00,
2013-07-23 00:52:00,74.4,63.6,29.77,NE,49,2.0,2.0,69,0.00,,,0.00,0,Wunderground v.1.15,2013-07-23 05:52:00,
2013-07-23 00:57:00,74.2,63.8,29.77,NE,55,2.0,3.0,70,0.00,,,0.00,0,Wunderground v.1.15,2013-07-23 05:57:00,
2013-07-23 01:02:00,74.1,63.7,29.76,NE,54,2.0,5.0,70,0.00,,,0.00,0,Wunderground v.1.15,2013-07-23 06:02:00,
2013-07-23 01:07:00,74.1,63.7,29.76,ENE,63,3.0,5.0,70,0.00,,,0.00,0,Wunderground v.1.15,2013-07-23 06:07:00,
2013-07-23 01:13:00,74.1,63.7,29.77,ENE,61,3.0,3.0,70,0.00,,,0.00,0,Wunderground v.1.15,2013-07-23 06:13:00,
2013-07-23 01:19:00,74.2,63.8,29.76,NE,48,3.0,5.0,70,0.00,,,0.00,0,Wunderground v.1.15,2013-07-23 06:19:00,
2013-07-23 01:24:00,74.2,64.2,29.76,NE,46,4.0,7.0,71,0.00,,,0.00,0,Wunderground v.1.15,2013-07-23 06:24:00,
2013-07-23 01:29:00,74.1,64.1,29.76,NE,44,4.0,7.0,71,0.00,,,0.00,0,Wunderground v.1.15,2013-07-23 06:29:00,
2013-07-23 01:34:00,74.2,64.2,29.76,NE,50,4.0,6.0,71,0.00,,,0.00,0,Wunderground v.1.15,2013-07-23 06:34:00,
2013-07-23 01:40:00,74.1,64.1,29.76,NE,46,4.0,4.0,71,0.00,,,0.00,0,Wunderground v.1.15,2013-07-23 06:40:00,
2013-07-23 01:46:00,74.0,64.0,29.76,NE,51,4.0,9.0,71,0.00,,,0.00,0,Wunderground v.1.15,2013-07-23 06:46:00,
2013-07-23 01:52:00,74.0,64.0,29.77,NE,51,3.0,4.0,71,0.00,,,0.00,0,Wunderground v.1.15,2013-07-23 06:52:00,
2013-07-23 01:57:00,73.9,64.3,29.77,NE,51,2.0,4.0,72,0.00,,,0.00,0,Wunderground v.1.15,2013-07-23 06:57:00,
2013-07-23 02:02:00,73.9,64.3,29.76,NNE,32,3.0,5.0,72,0.00,,,0.00,0,Wunderground v.1.15,2013-07-23 07:02:00,
2013-07-23 02:07:00,73.9,64.3,29.76,NE,37,3.0,6.0,72,0.00,,,0.00,0,Wunderground v.1.15,2013-07-23 07:07:00,
2013-07-23 02:13:00,73.5,64.3,29.76,NE,36,4.0,4.0,73,0.00,,,0.00,0,Wunderground v.1.15,2013-07-23 07:13:00,
2013-07-23 02:19:00,73.3,64.5,29.76,NE,40,4.0,6.0,74,0.00,,,0.00,0,Wunderground v.1.15,2013-07-23 07:19:00,
2013-07-23 02:25:00,73.1,64.3,29.76,NNE,31,4.0,5.0,74,0.00,,,0.00,0,Wunderground v.1.15,2013-07-23 07:25:00,
2013-07-23 02:31:00,72.9,64.5,29.75,NE,36,4.0,4.0,75,0.00,,,0.00,0,Wunderground v.1.15,2013-07-23 07:31:00,
2013-07-23 02:36:00,72.9,64.5,29.75,NE,37,4.0,5.0,75,0.00,,,0.00,0,Wunderground v.1.15,2013-07-23 07:36:00,
2013-07-23 02:41:00,72.8,64.4,29.75,NE,34,4.0,4.0,75,0.00,,,0.00,0,Wunderground v.1.15,2013-07-23 07:41:00,
2013-07-23 02:46:00,72.5,64.5,29.76,NE,34,4.0,6.0,76,0.00,,,0.00,0,Wunderground v.1.15,2013-07-23 07:46:00,
2013-07-23 02:51:00,72.0,64.4,29.76,NNE,33,4.0,4.0,77,0.00,,,0.00,0,Wunderground v.1.15,2013-07-23 07:51:00,
2013-07-23 02:56:00,71.3,64.4,29.75,NNE,33,3.0,4.0,79,0.00,,,0.00,0,Wunderground v.1.15,2013-07-23 07:56:00,
2013-07-23 03:02:00,70.9,64.4,29.76,NNE,19,4.0,7.0,80,0.00,,,0.00,0,Wunderground v.1.15,2013-07-23 08:02:00,
2013-07-23 03:07:00,71.3,64.4,29.76,NNE,19,4.0,8.0,79,0.00,,,0.00,0,Wunderground v.1.15,2013-07-23 08:07:00,
2013-07-23 03:12:00,71.4,64.5,29.76,NNE,19,4.0,4.0,79,0.00,,,0.00,0,Wunderground v.1.15,2013-07-23 08:12:00,
2013-07-23 03:17:00,71.2,64.4,29.76,NNE,19,3.0,4.0,79,0.00,,,0.00,0,Wunderground v.1.15,2013-07-23 08:17:00,
2013-07-23 03:22:00,71.0,64.5,29.77,NNE,19,3.0,4.0,80,0.00,,,0.00,0,Wunderground v.1.15,2013-07-23 08:22:00,
2013-07-23 03:27:00,70.8,64.7,29.77,NNE,19,2.0,4.0,81,0.00,,,0.00,0,Wunderground v.1.15,2013-07-23 08:27:00,
2013-07-23 03:32:00,70.7,64.6,29.77,NNE,19,1.0,2.0,81,0.00,,,0.00,0,Wunderground v.1.15,2013-07-23 08:32:00,
2013-07-23 03:37:00,70.2,64.4,29.77,NNE,19,0.0,2.0,82,0.00,,,0.00,0,Wunderground v.1.15,2013-07-23 08:37:00,
2013-07-23 03:43:00,69.8,64.4,29.76,NNE,19,0.0,3.0,83,0.00,,,0.00,0,Wunderground v.1.15,2013-07-23 08:43:00,
2013-07-23 03:49:00,69.2,64.5,29.77,NNE,19,1.0,3.0,85,0.00,,,0.00,0,Wunderground v.1.15,2013-07-23 08:49:00,
2013-07-23 03:55:00,69.6,64.5,29.77,NNE,19,3.0,5.0,84,0.00,,,0.00,0,Wunderground v.1.15,2013-07-23 08:55:00,
2013-07-23 04:01:00,69.2,64.5,29.77,NNE,19,4.0,4.0,85,0.00,,,0.00,0,Wunderground v.1.15,2013-07-23 09:01:00,
2013-07-23 04:07:00,69.5,64.5,29.77,NNE,19,2.0,4.0,84,0.00,,,0.00,0,Wunderground v.1.15,2013-07-23 09:07:00,
2013-07-23 04:12:00,69.7,64.6,29.77,NNE,19,2.0,4.0,84,0.00,,,0.00,0,Wunderground v.1.15,2013-07-23 09:12:00,
2013-07-23 04:17:00,69.4,64.7,29.77,NNE,19,3.0,7.0,85,0.00,,,0.00,0,Wunderground v.1.15,2013-07-23 09:17:00,
2013-07-23 04:22:00,69.5,64.8,29.78,North,5,5.0,6.0,85,0.00,,,0.00,0,Wunderground v.1.15,2013-07-23 09:22:00,
2013-07-23 04:27:00,69.4,64.7,29.78,North,5,6.0,9.0,85,0.00,,,0.00,0,Wunderground v.1.15,2013-07-23 09:27:00,
2013-07-23 04:32:00,69.3,64.9,29.79,North,360,7.0,10.0,86,0.00,,,0.00,0,Wunderground v.1.15,2013-07-23 09:32:00,
2013-07-23 04:38:00,69.3,64.9,29.80,North,355,7.0,10.0,86,0.00,,,0.00,0,Wunderground v.1.15,2013-07-23 09:38:00,
2013-07-23 04:43:00,69.4,65.0,29.80,North,355,6.0,11.0,86,0.00,,,0.00,0,Wunderground v.1.15,2013-07-23 09:43:00,
2013-07-23 04:48:00,69.4,65.0,29.79,NNE,20,7.0,14.0,86,0.00,,,0.00,0,Wunderground v.1.15,2013-07-23 09:48:00,
2013-07-23 04:53:00,69.5,65.1,29.79,NNE,17,8.0,12.0,86,0.00,,,0.00,0,Wunderground v.1.15,2013-07-23 09:53:00,
2013-07-23 04:58:00,69.4,65.0,29.79,NNE,26,7.0,12.0,86,0.00,,,0.00,0,Wunderground v.1.15,2013-07-23 09:58:00,
2013-07-23 05:03:00,69.4,65.4,29.79,NNE,30,7.0,9.0,87,0.00,,,0.00,0,Wunderground v.1.15,2013-07-23 10:03:00,
2013-07-23 05:08:00,69.4,65.4,29.80,NNE,31,7.0,12.0,87,0.00,,,0.00,0,Wunderground v.1.15,2013-07-23 10:08:00,
2013-07-23 05:13:00,69.3,65.3,29.80,NE,56,7.0,9.0,87,0.00,,,0.00,0,Wunderground v.1.15,2013-07-23 10:13:00,
2013-07-23 05:19:00,69.3,65.3,29.81,NE,42,8.0,10.0,87,0.00,,,0.00,0,Wunderground v.1.15,2013-07-23 10:19:00,
2013-07-23 05:24:00,69.4,65.4,29.81,NNE,31,8.0,11.0,87,0.00,,,0.00,0,Wunderground v.1.15,2013-07-23 10:24:00,
2013-07-23 05:29:00,69.4,65.4,29.81,NE,48,7.0,12.0,87,0.00,,,0.00,0,Wunderground v.1.15,2013-07-23 10:29:00,
2013-07-23 05:35:00,69.5,65.1,29.82,NNE,18,7.0,11.0,86,0.00,,,0.00,0,Wunderground v.1.15,2013-07-23 10:35:00,
2013-07-23 05:40:00,69.5,64.8,29.83,NNE,27,7.0,9.0,85,0.00,,,0.00,0,Wunderground v.1.15,2013-07-23 10:40:00,
2013-07-23 05:46:00,69.5,64.5,29.85,NNE,16,9.0,14.0,84,0.00,,,0.00,0,Wunderground v.1.15,2013-07-23 10:46:00,
2013-07-23 05:51:00,69.5,63.4,29.86,NNE,16,11.0,12.0,81,0.00,,,0.00,0,Wunderground v.1.15,2013-07-23 10:51:00,
2013-07-23 05:56:00,69.4,63.3,29.86,NNE,16,11.0,12.0,81,0.00,,,0.00,0,Wunderground v.1.15,2013-07-23 10:56:00,
2013-07-23 06:02:00,69.3,63.6,29.86,NE,36,10.0,14.0,82,0.00,,,0.00,0,Wunderground v.1.15,2013-07-23 11:02:00,
2013-07-23 06:07:00,69.2,63.1,29.87,North,355,11.0,14.0,81,0.00,,,0.00,0,Wunderground v.1.15,2013-07-23 11:07:00,
2013-07-23 06:12:00,69.0,63.3,29.86,NNE,24,11.0,11.0,82,0.00,,,0.00,0,Wunderground v.1.15,2013-07-23 11:12:00,
2013-07-23 06:18:00,68.8,63.4,29.87,North,5,10.0,16.0,83,0.00,,,0.00,0,Wunderground v.1.15,2013-07-23 11:18:00,
2013-07-23 06:24:00,68.6,63.2,29.86,NNW,343,11.0,14.0,83,0.00,,,0.00,0,Wunderground v.1.15,2013-07-23 11:24:00,
2013-07-23 06:29:00,68.4,63.0,29.86,NNE,26,9.0,14.0,83,0.00,,,0.00,0,Wunderground v.1.15,2013-07-23 11:29:00,
2013-07-23 06:35:00,68.3,62.9,29.86,North,5,10.0,17.0,83,0.00,,,0.00,0,Wunderground v.1.15,2013-07-23 11:35:00,
2013-07-23 06:40:00,68.2,62.8,29.88,North,360,10.0,10.0,83,0.00,,,0.00,0,Wunderground v.1.15,2013-07-23 11:40:00,
2013-07-23 06:45:00,68.0,62.6,29.89,North,360,8.0,10.0,83,0.00,,,0.00,0,Wunderground v.1.15,2013-07-23 11:45:00,
2013-07-23 06:50:00,67.8,62.8,29.89,North,360,7.0,8.0,84,0.00,,,0.00,5,Wunderground v.1.15,2013-07-23 11:50:00,
2013-07-23 06:55:00,67.6,62.9,29.89,NNW,345,6.0,9.0,85,0.00,,,0.00,5,Wunderground v.1.15,2013-07-23 11:55:00,
2013-07-23 07:01:00,67.5,62.8,29.91,NNW,346,7.0,9.0,85,0.00,,,0.00,0,Wunderground v.1.15,2013-07-23 12:01:00,
2013-07-23 07:07:00,67.4,62.4,29.92,NNW,327,6.0,13.0,84,0.00,,,0.00,5,Wunderground v.1.15,2013-07-23 12:07:00,
2013-07-23 07:12:00,67.4,62.4,29.94,WNW,297,6.0,10.0,84,0.00,,,0.00,0,Wunderground v.1.15,2013-07-23 12:12:00,
2013-07-23 07:17:00,67.5,63.2,29.95,West,261,6.0,12.0,86,0.00,,,0.00,0,Wunderground v.1.15,2013-07-23 12:17:00,
2013-07-23 07:22:00,67.3,63.3,29.95,West,279,8.0,8.0,87,0.00,,,0.00,5,Wunderground v.1.15,2013-07-23 12:22:00,
2013-07-23 07:27:00,67.0,63.3,29.96,West,263,8.0,12.0,88,0.00,,,0.00,5,Wunderground v.1.15,2013-07-23 12:27:00,
2013-07-23 07:33:00,66.7,63.0,29.97,West,276,8.0,10.0,88,0.20,,,0.02,5,Wunderground v.1.15,2013-07-23 12:33:00,
2013-07-23 07:38:00,66.5,63.2,29.95,West,276,8.0,10.0,89,0.28,,,0.04,7,Wunderground v.1.15,2013-07-23 12:38:00,
2013-07-23 07:43:00,66.1,62.8,29.94,WSW,252,6.0,7.0,89,0.19,,,0.05,7,Wunderground v.1.15,2013-07-23 12:43:00,
2013-07-23 07:48:00,65.9,62.9,29.93,West,272,4.0,7.0,90,0.08,,,0.05,7,Wunderground v.1.15,2013-07-23 12:48:00,
2013-07-23 07:53:00,65.6,62.9,29.91,WNW,290,2.0,5.0,91,0.06,,,0.06,12,Wunderground v.1.15,2013-07-23 12:53:00,
2013-07-23 07:58:00,65.6,63.2,29.90,North,9,2.0,7.0,92,0.09,,,0.07,16,Wunderground v.1.15,2013-07-23 12:58:00,
2013-07-23 08:04:00,65.4,63.0,29.89,NNE,30,5.0,5.0,92,0.14,,,0.08,14,Wunderground v.1.15,2013-07-23 13:04:00,
2013-07-23 08:09:00,65.3,62.9,29.88,NE,40,4.0,6.0,92,0.09,,,0.09,14,Wunderground v.1.15,2013-07-23 13:09:00,
2013-07-23 08:15:00,65.2,63.1,29.87,NE,38,4.0,7.0,93,0.11,,,0.10,16,Wunderground v.1.15,2013-07-23 13:15:00,
2013-07-23 08:20:00,65.2,63.1,29.87,NE,38,4.0,4.0,93,0.10,,,0.10,19,Wunderground v.1.15,2013-07-23 13:20:00,
2013-07-23 08:26:00,65.2,63.1,29.86,NE,47,3.0,6.0,93,0.05,,,0.10,25,Wunderground v.1.15,2013-07-23 13:26:00,
2013-07-23 08:32:00,65.3,63.2,29.87,ESE,107,5.0,9.0,93,0.00,,,0.10,40,Wunderground v.1.15,2013-07-23 13:32:00,
2013-07-23 08:38:00,65.4,63.6,29.85,ESE,103,6.0,12.0,94,0.00,,,0.10,79,Wunderground v.1.15,2013-07-23 13:38:00,
2013-07-23 08:44:00,65.7,63.9,29.83,East,101,8.0,11.0,94,0.00,,,0.11,105,Wunderground v.1.15,2013-07-23 13:44:00,
2013-07-23 08:49:00,65.8,64.0,29.83,East,98,9.0,12.0,94,0.00,,,0.11,127,Wunderground v.1.15,2013-07-23 13:49:00,
2013-07-23 08:55:00,66.0,63.9,29.82,East,97,9.0,13.0,93,0.00,,,0.11,114,Wunderground v.1.15,2013-07-23 13:55:00,
2013-07-23 09:01:00,66.1,64.0,29.82,ESE,119,9.0,11.0,93,0.00,,,0.11,127,Wunderground v.1.15,2013-07-23 14:01:00,
2013-07-23 09:06:00,66.2,64.1,29.82,East,99,10.0,13.0,93,0.00,,,0.11,134,Wunderground v.1.15,2013-07-23 14:06:00,
2013-07-23 09:11:00,66.5,64.1,29.81,ESE,112,9.0,10.0,92,0.00,,,0.11,149,Wunderground v.1.15,2013-07-23 14:11:00,
2013-07-23 09:17:00,66.8,64.4,29.80,ESE,111,8.0,10.0,92,0.00,,,0.11,172,Wunderground v.1.15,2013-07-23 14:17:00,
2013-07-23 09:22:00,67.0,64.6,29.79,ESE,106,8.0,9.0,92,0.00,,,0.11,171,Wunderground v.1.15,2013-07-23 14:22:00,
2013-07-23 09:27:00,67.3,64.6,29.79,ESE,107,9.0,9.0,91,0.00,,,0.11,192,Wunderground v.1.15,2013-07-23 14:27:00,
2013-07-23 09:32:00,67.6,64.6,29.79,SE,125,7.0,9.0,90,0.00,,,0.11,199,Wunderground v.1.15,2013-07-23 14:32:00,
2013-07-23 09:38:00,68.1,65.1,29.79,ESE,121,5.0,9.0,90,0.00,,,0.11,163,Wunderground v.1.15,2013-07-23 14:38:00,
2013-07-23 09:44:00,68.2,64.8,29.80,ESE,119,3.0,5.0,89,0.00,,,0.11,148,Wunderground v.1.15,2013-07-23 14:44:00,
2013-07-23 09:50:00,68.4,65.4,29.80,NE,40,3.0,3.0,90,0.00,,,0.11,158,Wunderground v.1.15,2013-07-23 14:50:00,
2013-07-23 09:51:00,68.3,64.9,29.80,East,94,3.0,7.0,89,0.00,,,0.11,174,Wunderground v.1.15,2013-07-23 14:51:00,
2013-07-23 09:56:00,68.3,64.9,29.79,East,84,5.0,8.0,89,0.00,,,0.11,221,Wunderground v.1.15,2013-07-23 14:56:00,
2013-07-23 10:02:00,68.6,65.2,29.79,East,93,6.0,7.0,89,0.00,,,0.11,244,Wunderground v.1.15,2013-07-23 15:02:00,
2013-07-23 10:07:00,68.8,65.1,29.79,ESE,109,6.0,9.0,88,0.00,,,0.11,257,Wunderground v.1.15,2013-07-23 15:07:00,
2013-07-23 10:12:00,69.1,65.4,29.80,NE,37,5.0,7.0,88,0.00,,,0.11,299,Wunderground v.1.15,2013-07-23 15:12:00,
2013-07-23 10:17:00,69.4,65.4,29.81,NE,48,6.0,14.0,87,0.00,,,0.11,285,Wunderground v.1.15,2013-07-23 15:17:00,
2013-07-23 10:23:00,69.6,64.9,29.82,NNE,25,8.0,10.0,85,0.00,,,0.11,323,Wunderground v.1.15,2013-07-23 15:23:00,
2013-07-23 10:28:00,69.6,65.2,29.83,NNE,17,9.0,12.0,86,0.00,,,0.11,380,Wunderground v.1.15,2013-07-23 15:28:00,
2013-07-23 10:33:00,69.5,64.1,29.83,NNE,20,9.0,17.0,83,0.00,,,0.11,403,Wunderground v.1.15,2013-07-23 15:33:00,
2013-07-23 10:38:00,70.3,65.6,29.83,NNE,13,9.0,17.0,85,0.00,,,0.11,686,Wunderground v.1.15,2013-07-23 15:38:00,
2013-07-23 10:44:00,70.4,64.3,29.83,NNE,33,10.0,14.0,81,0.00,,,0.11,397,Wunderground v.1.15,2013-07-23 15:44:00,
2013-07-23 10:50:00,70.1,63.6,29.84,ENE,57,10.0,12.0,80,0.00,,,0.11,308,Wunderground v.1.15,2013-07-23 15:50:00,
2013-07-23 10:56:00,70.2,63.7,29.84,NNE,22,8.0,16.0,80,0.00,,,0.11,371,Wunderground v.1.15,2013-07-23 15:56:00,
2013-07-23 11:02:00,70.6,64.5,29.84,East,81,6.0,7.0,81,0.00,,,0.11,403,Wunderground v.1.15,2013-07-23 16:02:00,
2013-07-23 11:07:00,71.3,63.7,29.84,NE,53,6.0,10.0,77,0.00,,,0.11,601,Wunderground v.1.15,2013-07-23 16:07:00,
2013-07-23 11:12:00,71.8,64.2,29.84,North,5,6.0,9.0,77,0.00,,,0.11,905,Wunderground v.1.15,2013-07-23 16:12:00,
2013-07-23 11:17:00,73.4,65.0,29.83,NNE,28,6.0,11.0,75,0.00,,,0.11,805,Wunderground v.1.15,2013-07-23 16:17:00,
2013-07-23 11:22:00,73.8,65.0,29.83,NE,46,6.0,7.0,74,0.00,,,0.11,775,Wunderground v.1.15,2013-07-23 16:22:00,
2013-07-23 11:27:00,74.0,64.8,29.84,NE,39,7.0,11.0,73,0.00,,,0.11,796,Wunderground v.1.15,2013-07-23 16:27:00,
2013-07-23 11:33:00,74.0,64.0,29.85,NE,40,8.0,13.0,71,0.00,,,0.11,802,Wunderground v.1.15,2013-07-23 16:33:00,
2013-07-23 11:39:00,74.7,64.7,29.86,ENE,74,7.0,13.0,71,0.00,,,0.11,800,Wunderground v.1.15,2013-07-23 16:39:00,
2013-07-23 11:45:00,74.9,64.0,29.87,East,92,4.0,7.0,69,0.00,,,0.11,805,Wunderground v.1.15,2013-07-23 16:45:00,
2013-07-23 11:51:00,75.8,66.1,29.88,ESE,107,4.0,4.0,72,0.00,,,0.11,816,Wunderground v.1.15,2013-07-23 16:51:00,
2013-07-23 11:56:00,75.8,66.1,29.87,East,82,3.0,4.0,72,0.00,,,0.11,851,Wunderground v.1.15,2013-07-23 16:56:00,
2013-07-23 12:02:00,76.0,65.5,29.87,East,95,4.0,4.0,70,0.00,,,0.11,858,Wunderground v.1.15,2013-07-23 17:02:00,
2013-07-23 12:07:00,75.7,63.5,29.88,East,101,5.0,8.0,66,0.00,,,0.11,779,Wunderground v.1.15,2013-07-23 17:07:00,
2013-07-23 12:12:00,76.1,65.6,29.87,East,101,3.0,3.0,70,0.00,,,0.11,937,Wunderground v.1.15,2013-07-23 17:12:00,
2013-07-23 12:17:00,76.6,65.2,29.88,ESE,102,2.0,9.0,68,0.00,,,0.11,1000,Wunderground v.1.15,2013-07-23 17:17:00,
2013-07-23 12:23:00,77.0,65.6,29.88,ESE,105,5.0,5.0,68,0.00,,,0.11,1014,Wunderground v.1.15,2013-07-23 17:23:00,
2013-07-23 12:29:00,76.2,63.6,29.87,ESE,105,3.0,5.0,65,0.00,,,0.11,622,Wunderground v.1.15,2013-07-23 17:29:00,
2013-07-23 12:35:00,76.1,65.6,29.88,ESE,104,3.0,4.0,70,0.00,,,0.11,596,Wunderground v.1.15,2013-07-23 17:35:00,
2013-07-23 12:41:00,75.5,64.2,29.87,NNE,17,4.0,5.0,68,0.00,,,0.11,411,Wunderground v.1.15,2013-07-23 17:41:00,
2013-07-23 12:47:00,75.6,65.5,29.87,East,81,2.0,5.0,71,0.00,,,0.11,455,Wunderground v.1.15,2013-07-23 17:47:00,
2013-07-23 12:52:00,75.8,65.3,29.87,East,95,3.0,7.0,70,0.00,,,0.11,543,Wunderground v.1.15,2013-07-23 17:52:00,
2013-07-23 12:57:00,75.7,66.0,29.88,ESE,103,4.0,7.0,72,0.00,,,0.11,439,Wunderground v.1.15,2013-07-23 17:57:00,
2013-07-23 13:02:00,75.5,65.0,29.88,ESE,119,4.0,5.0,70,0.00,,,0.11,394,Wunderground v.1.15,2013-07-23 18:02:00,
2013-07-23 13:08:00,75.2,65.1,29.87,SE,146,5.0,10.0,71,0.00,,,0.11,376,Wunderground v.1.15,2013-07-23 18:08:00,
2013-07-23 13:13:00,75.3,65.6,29.87,ESE,121,6.0,10.0,72,0.00,,,0.11,478,Wunderground v.1.15,2013-07-23 18:13:00,
2013-07-23 13:19:00,75.9,65.8,29.88,ESE,115,4.0,10.0,71,0.00,,,0.11,452,Wunderground v.1.15,2013-07-23 18:19:00,
2013-07-23 13:25:00,75.4,64.9,29.89,ESE,115,4.0,6.0,70,0.00,,,0.11,452,Wunderground v.1.15,2013-07-23 18:25:00,
2013-07-23 13:30:00,75.6,65.5,29.88,ESE,119,4.0,4.0,71,0.00,,,0.11,656,Wunderground v.1.15,2013-07-23 18:30:00,
2013-07-23 13:36:00,76.4,65.9,29.88,SE,128,5.0,9.0,70,0.00,,,0.11,888,Wunderground v.1.15,2013-07-23 18:36:00,
2013-07-23 13:42:00,76.9,67.6,29.87,ESE,107,5.0,6.0,73,0.00,,,0.11,464,Wunderground v.1.15,2013-07-23 18:42:00,
2013-07-23 13:47:00,77.4,66.4,29.87,East,100,4.0,9.0,69,0.00,,,0.11,919,Wunderground v.1.15,2013-07-23 18:47:00,
2013-07-23 13:52:00,77.5,67.8,29.87,East,98,4.0,4.0,72,0.00,,,0.11,932,Wunderground v.1.15,2013-07-23 18:52:00,
2013-07-23 13:57:00,77.7,66.7,29.87,ESE,105,4.0,10.0,69,0.00,,,0.11,898,Wunderground v.1.15,2013-07-23 18:57:00,
2013-07-23 14:03:00,77.5,65.7,29.86,East,101,4.0,8.0,67,0.00,,,0.11,788,Wunderground v.1.15,2013-07-23 19:03:00,
2013-07-23 14:09:00,77.7,67.1,29.86,ESE,113,5.0,9.0,70,0.00,,,0.11,480,Wunderground v.1.15,2013-07-23 19:09:00,
2013-07-23 14:14:00,77.8,66.4,29.86,ESE,105,6.0,11.0,68,0.00,,,0.11,652,Wunderground v.1.15,2013-07-23 19:14:00,
2013-07-23 14:19:00,78.1,66.7,29.86,ENE,76,8.0,12.0,68,0.00,,,0.11,949,Wunderground v.1.15,2013-07-23 19:19:00,
2013-07-23 14:25:00,78.5,66.6,29.86,NNE,31,7.0,8.0,67,0.00,,,0.11,983,Wunderground v.1.15,2013-07-23 19:25:00,
2013-07-23 14:31:00,79.1,66.3,29.86,NE,50,4.0,6.0,65,0.00,,,0.11,737,Wunderground v.1.15,2013-07-23 19:31:00,
2013-07-23 14:36:00,78.2,66.3,29.86,ENE,58,3.0,6.0,67,0.00,,,0.11,508,Wunderground v.1.15,2013-07-23 19:36:00,
2013-07-23 14:42:00,77.8,65.5,29.86,NNE,30,4.0,5.0,66,0.00,,,0.11,571,Wunderground v.1.15,2013-07-23 19:42:00,
2013-07-23 14:47:00,79.3,68.2,29.86,NE,42,4.0,6.0,69,0.00,,,0.11,1092,Wunderground v.1.15,2013-07-23 19:47:00,
2013-07-23 14:52:00,79.4,65.2,29.87,ESE,110,4.0,6.0,62,0.00,,,0.11,1078,Wunderground v.1.15,2013-07-23 19:52:00,
2013-07-23 14:58:00,79.7,68.6,29.87,ESE,103,4.0,10.0,69,0.00,,,0.11,877,Wunderground v.1.15,2013-07-23 19:58:00,
2013-07-23 15:03:00,79.6,66.3,29.87,East,101,5.0,7.0,64,0.00,,,0.11,821,Wunderground v.1.15,2013-07-23 20:03:00,
2013-07-23 15:09:00,79.4,65.7,29.87,East,98,6.0,11.0,63,0.00,,,0.11,810,Wunderground v.1.15,2013-07-23 20:09:00,
2013-07-23 15:14:00,79.7,68.2,29.87,NNE,30,6.0,9.0,68,0.00,,,0.11,796,Wunderground v.1.15,2013-07-23 20:14:00,
2013-07-23 15:20:00,79.8,67.4,29.88,East,99,4.0,4.0,66,0.00,,,0.11,793,Wunderground v.1.15,2013-07-23 20:20:00,
2013-07-23 15:25:00,79.6,67.2,29.88,East,99,5.0,6.0,66,0.00,,,0.11,782,Wunderground v.1.15,2013-07-23 20:25:00,
2013-07-23 15:31:00,80.1,67.3,29.88,NNE,31,4.0,8.0,65,0.00,,,0.11,775,Wunderground v.1.15,2013-07-23 20:31:00,
2013-07-23 15:37:00,80.0,66.3,29.88,East,94,4.0,8.0,63,0.00,,,0.11,768,Wunderground v.1.15,2013-07-23 20:37:00,
2013-07-23 15:43:00,80.3,66.6,29.88,East,96,3.0,7.0,63,0.00,,,0.11,756,Wunderground v.1.15,2013-07-23 20:43:00,
2013-07-23 15:48:00,80.5,66.3,29.88,East,96,3.0,7.0,62,0.00,,,0.11,751,Wunderground v.1.15,2013-07-23 20:48:00,
2013-07-23 15:54:00,80.4,66.6,29.88,ENE,76,2.0,7.0,63,0.00,,,0.11,737,Wunderground v.1.15,2013-07-23 20:54:00,
2013-07-23 16:00:00,80.3,66.6,29.87,ENE,61,2.0,2.0,63,0.00,,,0.11,729,Wunderground v.1.15,2013-07-23 21:00:00,
2013-07-23 16:06:00,80.5,66.7,29.88,ENE,59,2.0,3.0,63,0.00,,,0.11,710,Wunderground v.1.15,2013-07-23 21:06:00,
2013-07-23 16:12:00,80.3,66.6,29.88,ENE,59,3.0,3.0,63,0.00,,,0.11,707,Wunderground v.1.15,2013-07-23 21:12:00,
2013-07-23 16:17:00,80.5,66.3,29.88,ENE,59,2.0,3.0,62,0.00,,,0.11,742,Wunderground v.1.15,2013-07-23 21:17:00,
2013-07-23 16:22:00,80.4,66.2,29.87,East,88,2.0,5.0,62,0.00,,,0.11,213,Wunderground v.1.15,2013-07-23 21:22:00,
2013-07-23 16:27:00,79.7,67.8,29.87,East,88,2.0,5.0,67,0.00,,,0.11,260,Wunderground v.1.15,2013-07-23 21:27:00,
2013-07-23 16:33:00,80.7,66.5,29.86,NE,50,1.0,7.0,62,0.00,,,0.11,679,Wunderground v.1.15,2013-07-23 21:33:00,
2013-07-23 16:38:00,81.6,68.7,29.87,ENE,68,2.0,7.0,65,0.00,,,0.11,679,Wunderground v.1.15,2013-07-23 21:38:00,
2013-07-23 16:44:00,80.1,67.3,29.86,East,83,2.0,3.0,65,0.00,,,0.11,279,Wunderground v.1.15,2013-07-23 21:44:00,
2013-07-23 16:49:00,80.3,67.0,29.87,East,83,2.0,4.0,64,0.00,,,0.11,679,Wunderground v.1.15,2013-07-23 21:49:00,
2013-07-23 16:54:00,81.3,67.5,29.86,East,98,2.0,7.0,63,0.00,,,0.11,659,Wunderground v.1.15,2013-07-23 21:54:00,
2013-07-23 16:59:00,81.6,66.8,29.86,NNE,24,3.0,8.0,61,0.00,,,0.11,640,Wunderground v.1.15,2013-07-23 21:59:00,
2013-07-23 17:05:00,80.8,66.6,29.86,ENE,72,4.0,4.0,62,0.00,,,0.11,128,Wunderground v.1.15,2013-07-23 22:05:00,
2013-07-23 17:11:00,80.5,67.6,29.87,NE,49,2.0,4.0,65,0.00,,,0.11,582,Wunderground v.1.15,2013-07-23 22:11:00,
2013-07-23 17:17:00,80.9,65.7,29.87,NE,44,2.0,5.0,60,0.00,,,0.11,571,Wunderground v.1.15,2013-07-23 22:17:00,
2013-07-23 17:23:00,81.3,67.5,29.86,NE,42,2.0,6.0,63,0.00,,,0.11,541,Wunderground v.1.15,2013-07-23 22:23:00,
2013-07-23 17:29:00,81.1,67.3,29.87,NNE,25,3.0,9.0,63,0.00,,,0.11,522,Wunderground v.1.15,2013-07-23 22:29:00,
2013-07-23 17:34:00,81.1,67.3,29.86,NNE,22,3.0,9.0,63,0.00,,,0.11,504,Wunderground v.1.15,2013-07-23 22:34:00,
2013-07-23 17:40:00,81.1,65.9,29.86,NNE,13,4.0,7.0,60,0.00,,,0.11,504,Wunderground v.1.15,2013-07-23 22:40:00,
2013-07-23 17:45:00,81.4,66.7,29.87,North,5,4.0,7.0,61,0.00,,,0.11,478,Wunderground v.1.15,2013-07-23 22:45:00,
2013-07-23 17:50:00,81.0,67.7,29.86,North,5,3.0,4.0,64,0.00,,,0.11,455,Wunderground v.1.15,2013-07-23 22:50:00,
2013-07-23 17:56:00,81.0,67.2,29.86,North,5,3.0,5.0,63,0.00,,,0.11,431,Wunderground v.1.15,2013-07-23 22:56:00,
2013-07-23 18:02:00,80.7,65.0,29.86,North,5,3.0,6.0,59,0.00,,,0.11,411,Wunderground v.1.15,2013-07-23 23:02:00,
2013-07-23 18:08:00,80.7,66.0,29.86,NNE,28,3.0,6.0,61,0.00,,,0.11,394,Wunderground v.1.15,2013-07-23 23:08:00,
2013-07-23 18:14:00,80.6,65.9,29.86,NNE,32,4.0,5.0,61,0.00,,,0.11,374,Wunderground v.1.15,2013-07-23 23:14:00,
2013-07-23 18:20:00,80.4,65.7,29.86,NNE,32,4.0,5.0,61,0.00,,,0.11,359,Wunderground v.1.15,2013-07-23 23:20:00,
2013-07-23 18:26:00,80.2,65.1,29.86,NNE,21,5.0,7.0,60,0.00,,,0.11,341,Wunderground v.1.15,2013-07-23 23:26:00,
2013-07-23 18:31:00,80.0,65.3,29.86,NNE,12,5.0,7.0,61,0.00,,,0.11,100,Wunderground v.1.15,2013-07-23 23:31:00,
2013-07-23 18:36:00,79.9,65.2,29.86,North,5,5.0,8.0,61,0.00,,,0.11,313,Wunderground v.1.15,2013-07-23 23:36:00,
2013-07-23 18:42:00,80.0,65.8,29.86,North,5,4.0,5.0,62,0.00,,,0.11,292,Wunderground v.1.15,2013-07-23 23:42:00,
2013-07-23 18:48:00,79.8,64.7,29.86,NNE,13,4.0,7.0,60,0.00,,,0.11,272,Wunderground v.1.15,2013-07-23 23:48:00,
2013-07-23 18:53:00,79.6,64.5,29.86,NNE,14,5.0,12.0,60,0.00,,,0.11,260,Wunderground v.1.15,2013-07-23 23:53:00,
2013-07-23 18:59:00,79.5,65.3,29.86,North,5,6.0,12.0,62,0.00,,,0.11,241,Wunderground v.1.15,2013-07-23 23:59:00,
2013-07-23 19:05:00,79.5,64.9,29.86,NNE,20,5.0,9.0,61,0.00,,,0.11,223,Wunderground v.1.15,2013-07-24 00:05:00,
2013-07-23 19:10:00,79.3,65.1,29.86,North,5,5.0,10.0,62,0.00,,,0.11,213,Wunderground v.1.15,2013-07-24 00:10:00,
2013-07-23 19:15:00,78.9,64.3,29.86,NNE,18,6.0,10.0,61,0.00,,,0.11,192,Wunderground v.1.15,2013-07-24 00:15:00,
2013-07-23 19:20:00,78.7,64.1,29.86,NNE,22,6.0,6.0,61,0.00,,,0.11,174,Wunderground v.1.15,2013-07-24 00:20:00,
2013-07-23 19:26:00,78.4,64.3,29.87,NNE,29,6.0,11.0,62,0.00,,,0.11,156,Wunderground v.1.15,2013-07-24 00:26:00,
2013-07-23 19:31:00,78.2,64.1,29.86,NE,38,6.0,7.0,62,0.00,,,0.11,141,Wunderground v.1.15,2013-07-24 00:31:00,
2013-07-23 19:37:00,78.0,64.4,29.86,NNE,31,6.0,8.0,63,0.00,,,0.11,125,Wunderground v.1.15,2013-07-24 00:37:00,
2013-07-23 19:42:00,77.7,63.6,29.86,NNE,19,7.0,9.0,62,0.00,,,0.11,109,Wunderground v.1.15,2013-07-24 00:42:00,
2013-07-23 19:48:00,77.5,64.8,29.86,NE,46,6.0,9.0,65,0.00,,,0.11,91,Wunderground v.1.15,2013-07-24 00:48:00,
2013-07-23 19:53:00,77.2,64.5,29.87,NNE,33,5.0,6.0,65,0.00,,,0.11,76,Wunderground v.1.15,2013-07-24 00:53:00,
2013-07-23 19:59:00,77.0,63.9,29.87,NNE,31,6.0,10.0,64,0.00,,,0.11,63,Wunderground v.1.15,2013-07-24 00:59:00,
2013-07-23 20:05:00,76.7,63.6,29.87,NNE,22,6.0,12.0,64,0.00,,,0.11,37,Wunderground v.1.15,2013-07-24 01:05:00,
2013-07-23 20:10:00,76.4,63.8,29.87,NNE,30,6.0,6.0,65,0.00,,,0.11,30,Wunderground v.1.15,2013-07-24 01:10:00,
2013-07-23 20:15:00,76.2,64.0,29.87,NE,44,6.0,6.0,66,0.00,,,0.11,25,Wunderground v.1.15,2013-07-24 01:15:00,
2013-07-23 20:21:00,75.9,63.7,29.87,NE,36,5.0,5.0,66,0.00,,,0.11,18,Wunderground v.1.15,2013-07-24 01:21:00,
2013-07-23 20:26:00,75.4,63.7,29.88,NNE,23,5.0,6.0,67,0.00,,,0.11,16,Wunderground v.1.15,2013-07-24 01:26:00,
2013-07-23 20:31:00,75.3,63.2,29.88,NE,38,5.0,9.0,66,0.00,,,0.11,11,Wunderground v.1.15,2013-07-24 01:31:00,
2013-07-23 20:37:00,75.2,63.1,29.88,NNE,28,5.0,9.0,66,0.00,,,0.11,7,Wunderground v.1.15,2013-07-24 01:37:00,
2013-07-23 20:43:00,74.7,63.0,29.88,NNE,28,4.0,5.0,67,0.00,,,0.11,5,Wunderground v.1.15,2013-07-24 01:43:00,
2013-07-23 20:48:00,74.3,63.5,29.88,NNE,28,3.0,5.0,69,0.00,,,0.11,0,Wunderground v.1.15,2013-07-24 01:48:00,
2013-07-23 20:53:00,74.3,63.1,29.88,NNE,28,3.0,4.0,68,0.00,,,0.11,0,Wunderground v.1.15,2013-07-24 01:53:00,
2013-07-23 20:58:00,74.2,63.0,29.88,NNE,28,2.0,4.0,68,0.00,,,0.11,0,Wunderground v.1.15,2013-07-24 01:58:00,
2013-07-23 21:04:00,74.0,63.2,29.89,NNE,28,3.0,4.0,69,0.00,,,0.11,0,Wunderground v.1.15,2013-07-24 02:04:00,
2013-07-23 21:10:00,73.9,63.1,29.89,NNE,29,3.0,3.0,69,0.00,,,0.11,0,Wunderground v.1.15,2013-07-24 02:10:00,
2013-07-23 21:15:00,73.7,62.9,29.89,NNE,28,2.0,4.0,69,0.00,,,0.11,0,Wunderground v.1.15,2013-07-24 02:15:00,
2013-07-23 21:20:00,73.5,63.1,29.89,NNE,28,2.0,2.0,70,0.00,,,0.11,0,Wunderground v.1.15,2013-07-24 02:20:00,
2013-07-23 21:25:00,73.3,62.9,29.89,NNE,28,1.0,2.0,70,0.00,,,0.11,0,Wunderground v.1.15,2013-07-24 02:25:00,
2013-07-23 21:31:00,73.3,62.9,29.90,NNE,28,1.0,1.0,70,0.00,,,0.11,0,Wunderground v.1.15,2013-07-24 02:31:00,
2013-07-23 21:37:00,73.3,62.9,29.90,NNE,28,1.0,4.0,70,0.00,,,0.11,0,Wunderground v.1.15,2013-07-24 02:37:00,
2013-07-23 21:42:00,73.1,62.7,29.90,NNE,29,2.0,3.0,70,0.00,,,0.11,0,Wunderground v.1.15,2013-07-24 02:42:00,
2013-07-23 21:47:00,72.8,62.8,29.90,NNE,28,2.0,3.0,71,0.00,,,0.11,0,Wunderground v.1.15,2013-07-24 02:47:00,
2013-07-23 21:52:00,73.0,62.6,29.91,NNE,28,1.0,1.0,70,0.00,,,0.11,0,Wunderground v.1.15,2013-07-24 02:52:00,
2013-07-23 21:57:00,72.8,62.8,29.91,NNE,28,1.0,2.0,71,0.00,,,0.11,0,Wunderground v.1.15,2013-07-24 02:57:00,
2013-07-23 22:03:00,72.6,63.1,29.91,NNE,28,1.0,1.0,72,0.00,,,0.11,0,Wunderground v.1.15,2013-07-24 03:03:00,
2013-07-23 22:08:00,72.4,62.9,29.90,NNE,28,1.0,2.0,72,0.00,,,0.11,0,Wunderground v.1.15,2013-07-24 03:08:00,
2013-07-23 22:13:00,72.2,62.7,29.91,NNE,28,1.0,1.0,72,0.00,,,0.11,0,Wunderground v.1.15,2013-07-24 03:13:00,
2013-07-23 22:18:00,72.1,62.6,29.91,NNE,28,1.0,1.0,72,0.00,,,0.11,0,Wunderground v.1.15,2013-07-24 03:18:00,
2013-07-23 22:24:00,71.9,62.4,29.91,NNE,28,0.0,0.0,72,0.00,,,0.11,0,Wunderground v.1.15,2013-07-24 03:24:00,
2013-07-23 22:30:00,71.7,62.6,29.91,NNE,28,0.0,0.0,73,0.00,,,0.11,0,Wunderground v.1.15,2013-07-24 03:30:00,
2013-07-23 22:36:00,71.0,62.3,29.91,NNE,28,0.0,1.0,74,0.00,,,0.11,0,Wunderground v.1.15,2013-07-24 03:36:00,
2013-07-23 22:42:00,70.8,62.5,29.90,NNE,28,0.0,1.0,75,0.00,,,0.11,0,Wunderground v.1.15,2013-07-24 03:42:00,
2013-07-23 22:48:00,71.0,62.7,29.91,NNE,28,1.0,1.0,75,0.00,,,0.11,0,Wunderground v.1.15,2013-07-24 03:48:00,
2013-07-23 22:53:00,69.7,62.5,29.91,NNE,28,1.0,1.0,78,0.00,,,0.11,0,Wunderground v.1.15,2013-07-24 03:53:00,
2013-07-23 22:59:00,68.5,62.8,29.91,NNE,28,2.0,3.0,82,0.00,,,0.11,0,Wunderground v.1.15,2013-07-24 03:59:00,
2013-07-23 23:01:00,68.6,62.9,29.91,NNE,28,2.0,2.0,82,0.00,,,0.11,0,Wunderground v.1.15,2013-07-24 04:01:00,
2013-07-23 23:02:00,68.6,62.5,29.91,NNE,28,2.0,2.0,81,0.00,,,0.11,0,Wunderground v.1.15,2013-07-24 04:02:00,
2013-07-23 23:03:00,68.8,62.7,29.91,NNE,28,2.0,2.0,81,0.00,,,0.11,0,Wunderground v.1.15,2013-07-24 04:03:00,
2013-07-23 23:05:00,69.0,62.9,29.91,NNE,28,2.0,2.0,81,0.00,,,0.11,0,Wunderground v.1.15,2013-07-24 04:05:00,
2013-07-23 23:08:00,69.4,63.0,29.91,NNE,28,2.0,3.0,80,0.00,,,0.11,0,Wunderground v.1.15,2013-07-24 04:08:00,
2013-07-23 23:14:00,69.5,63.1,29.91,NNE,28,2.0,2.0,80,0.00,,,0.11,0,Wunderground v.1.15,2013-07-24 04:14:00,
2013-07-23 23:20:00,69.2,63.1,29.91,NNE,28,2.0,2.0,81,0.00,,,0.11,0,Wunderground v.1.15,2013-07-24 04:20:00,
2013-07-23 23:25:00,69.4,63.3,29.91,NNE,28,2.0,2.0,81,0.00,,,0.11,0,Wunderground v.1.15,2013-07-24 04:25:00,
2013-07-23 23:31:00,69.2,62.8,29.92,NNE,28,1.0,1.0,80,0.00,,,0.11,0,Wunderground v.1.15,2013-07-24 04:31:00,
2013-07-23 23:36:00,68.6,62.9,29.92,NNE,29,0.0,1.0,82,0.00,,,0.11,0,Wunderground v.1.15,2013-07-24 04:36:00,
2013-07-23 23:41:00,68.1,62.7,29.92,NNE,28,1.0,2.0,83,0.00,,,0.11,0,Wunderground v.1.15,2013-07-24 04:41:00,
2013-07-23 23:47:00,67.5,62.8,29.92,NNE,28,2.0,3.0,85,0.00,,,0.11,0,Wunderground v.1.15,2013-07-24 04:47:00,
2013-07-23 23:52:00,67.4,62.7,29.93,NNE,28,1.0,2.0,85,0.00,,,0.11,0,Wunderground v.1.15,2013-07-24 04:52:00,
2013-07-23 23:57:00,67.5,62.5,29.93,NNE,28,0.0,2.0,84,0.00,,,0.11,0,Wunderground v.1.15,2013-07-24 04:57:00,